TimeCDT,TemperatureF,Dew PointF,Humidity,Sea Level PressureIn,VisibilityMPH,Wind Direction,Wind SpeedMPH,Gust SpeedMPH,PrecipitationIn,Events,Conditions,WindDirDegrees,DateUTC
12:15 AM,82.4,74.3,76,29.81,10.0,SSE,8.1,-,N/A,,Scattered Clouds,160,2013-09-21 05:15:00
12:35 AM,82.2,74.3,77,29.80,10.0,SSE,8.1,-,N/A,,Scattered Clouds,160,2013-09-21 05:35:00
12:55 AM,82.4,74.3,76,29.81,7.0,SSE,10.4,16.1,N/A,,Mostly Cloudy,160,2013-09-21 05:55:00
1:15 AM,82.2,74.3,77,29.79,10.0,South,12.7,17.3,N/A,,Mostly Cloudy,170,2013-09-21 06:15:00
1:35 AM,82.4,74.3,76,29.79,10.0,SSE,10.4,17.3,N/A,,Mostly Cloudy,160,2013-09-21 06:35:00
1:55 AM,82.4,74.1,76,29.79,10.0,SSE,11.5,17.3,N/A,,Mostly Cloudy,160,2013-09-21 06:55:00
2:15 AM,82.4,74.3,76,29.79,10.0,SSE,6.9,16.1,N/A,,Mostly Cloudy,160,2013-09-21 07:15:00
2:35 AM,82.4,74.3,76,29.79,7.0,South,6.9,-,N/A,,Mostly Cloudy,170,2013-09-21 07:35:00
2:55 AM,82.4,73.8,75,29.77,10.0,SSE,6.9,-,N/A,,Scattered Clouds,160,2013-09-21 07:55:00
3:15 AM,82.4,73.9,75,29.76,10.0,SSE,8.1,-,N/A,,Scattered Clouds,160,2013-09-21 08:15:00
3:35 AM,82.4,74.3,76,29.76,10.0,SSE,9.2,-,N/A,,Scattered Clouds,160,2013-09-21 08:35:00
3:55 AM,82.6,74.3,76,29.76,10.0,South,11.5,18.4,N/A,,Mostly Cloudy,170,2013-09-21 08:55:00
4:15 AM,80.2,73.8,81,29.76,5.0,SSE,11.5,24.2,0.01,Rain,Light Rain,160,2013-09-21 09:15:00
4:35 AM,79.0,73.6,83,29.76,7.0,SSE,4.6,16.1,0.01,,Mostly Cloudy,160,2013-09-21 09:35:00
4:55 AM,79.2,73.0,81,29.76,10.0,SSE,8.1,-,0.01,,Mostly Cloudy,160,2013-09-21 09:55:00
5:15 AM,79.0,73.4,83,29.75,10.0,SSE,5.8,-,N/A,,Mostly Cloudy,160,2013-09-21 10:15:00
5:35 AM,79.7,74.3,83,29.75,7.0,South,3.5,-,N/A,Rain,Light Rain,180,2013-09-21 10:35:00
5:50 AM,80.6,75.2,84,29.76,5.0,SSE,11.5,-,N/A,Rain,Rain,160,2013-09-21 10:50:00
5:55 AM,80.1,74.7,83,29.77,10.0,SSE,9.2,-,0.01,Rain,Light Rain,160,2013-09-21 10:55:00
6:50 AM,78.8,73.4,83,29.77,7.0,SSE,4.6,-,N/A,Rain,Light Rain,160,2013-09-21 11:50:00
7:37 AM,78.8,75.2,89,29.81,2.0,SW,13.8,25.3,N/A,Rain,Heavy Rain Showers,220,2013-09-21 12:37:00
7:50 AM,75.2,71.6,89,29.81,3.0,WSW,13.8,-,N/A,Rain,Rain Showers,250,2013-09-21 12:50:00
8:50 AM,73.4,71.6,94,29.80,3.0,SSW,9.2,-,N/A,Rain,Rain Showers,200,2013-09-21 13:50:00
9:50 AM,75.2,71.6,89,29.80,7.0,South,5.8,-,N/A,Rain,Light Rain,170,2013-09-21 14:50:00
10:50 AM,75.2,73.4,94,29.79,7.0,Calm,Calm,-,N/A,Rain,Light Rain,0,2013-09-21 15:50:00
11:50 AM,75.2,73.4,94,29.80,7.0,South,6.9,-,N/A,Rain,Light Rain,170,2013-09-21 16:50:00
12:50 PM,75.2,73.4,94,29.79,7.0,South,4.6,-,N/A,,Mostly Cloudy,170,2013-09-21 17:50:00
1:50 PM,77.0,73.4,89,29.77,7.0,South,4.6,-,N/A,,Mostly Cloudy,180,2013-09-21 18:50:00
2:23 PM,78.8,73.4,83,29.75,7.0,South,5.8,-,N/A,,Mostly Cloudy,180,2013-09-21 19:23:00
2:50 PM,77.0,73.4,89,29.75,7.0,South,9.2,-,N/A,,Mostly Cloudy,180,2013-09-21 19:50:00
3:50 PM,77.0,73.4,89,29.71,7.0,South,6.9,-,N/A,,Mostly Cloudy,190,2013-09-21 20:50:00
4:50 PM,78.8,73.4,83,29.71,7.0,SW,3.5,-,N/A,,Mostly Cloudy,230,2013-09-21 21:50:00
5:50 PM,78.8,73.4,83,29.73,7.0,WSW,3.5,-,N/A,,Mostly Cloudy,240,2013-09-21 22:50:00
6:50 PM,75.2,73.4,94,29.73,4.0,WSW,3.5,-,N/A,,Mostly Cloudy,240,2013-09-21 23:50:00
7:15 PM,75.4,72.5,91,29.73,10.0,Calm,Calm,-,N/A,Rain,Light Rain,0,2013-09-22 00:15:00
7:35 PM,75.4,72.3,90,29.73,10.0,Calm,Calm,-,N/A,,Overcast,0,2013-09-22 00:35:00
7:55 PM,75.2,72.1,90,29.73,10.0,Calm,Calm,-,N/A,Rain,Light Rain,0,2013-09-22 00:55:00
8:15 PM,75.4,72.5,91,29.73,7.0,Calm,Calm,-,0.01,,Light Drizzle,0,2013-09-22 01:15:00
8:35 PM,75.4,72.5,91,29.74,10.0,Calm,Calm,-,0.01,Rain,Light Rain,0,2013-09-22 01:35:00
8:55 PM,75.2,72.5,91,29.74,10.0,Calm,Calm,-,0.01,,Light Drizzle,0,2013-09-22 01:55:00
9:15 PM,75.2,72.1,90,29.74,10.0,Calm,Calm,-,N/A,,Overcast,0,2013-09-22 02:15:00
9:35 PM,75.2,72.1,90,29.75,10.0,Calm,Calm,-,N/A,,Overcast,0,2013-09-22 02:35:00
9:55 PM,74.5,71.6,91,29.74,10.0,Calm,Calm,-,N/A,,Overcast,0,2013-09-22 02:55:00
10:15 PM,74.5,71.6,91,29.74,5.0,Calm,Calm,-,0.02,Rain,Rain,0,2013-09-22 03:15:00
10:35 PM,74.3,71.1,90,29.75,7.0,Calm,Calm,-,0.02,,Mostly Cloudy,0,2013-09-22 03:35:00
10:55 PM,74.3,71.1,90,29.75,7.0,Calm,Calm,-,0.02,,Mostly Cloudy,0,2013-09-22 03:55:00
11:15 PM,73.9,70.9,90,29.75,7.0,Calm,Calm,-,N/A,,Mostly Cloudy,0,2013-09-22 04:15:00
11:35 PM,73.8,70.7,90,29.76,10.0,Calm,Calm,-,N/A,,Overcast,0,2013-09-22 04:35:00
11:55 PM,73.6,70.7,91,29.75,10.0,Calm,Calm,-,N/A,,Overcast,0,2013-09-22 04:55:00